W5ZYX Weather Reports


Display with metric or nautical units.
time (UTC)temp
F
wind
direction
speed
MPH
gust
MPH
rain 1hr
in
rain 24hr
in
rain mn
in
humidity
%
barometer
mb
20260831032536 85 183 1.0 5.0 0.00 0.00 0.00 63 1014.9
20260831032037 85 183 2.0 5.0 0.00 0.00 0.00 63 1015.0
20260831031602 85 169 2.0 5.0 0.00 0.00 0.00 62 1014.8
20260831031036 85 174 3.0 6.0 0.00 0.00 0.00 63 1014.8
20260831030536 85 175 2.0 6.0 0.00 0.00 0.00 63 1014.8
20260831030057 84 162 3.0 6.0 0.00 0.00 0.00 64 1014.7
20260831025536 83 143 2.0 5.0 0.00 0.00 0.00 65 1014.6
20260831025038 83 140 0.0 5.0 0.00 0.00 0.00 66 1014.5
20260831024559 83 0 0.0 0.0 0.00 0.00 0.00 66 1014.5
20260831024036 84 0 0.0 0.0 0.00 0.00 0.00 65 1014.4
20260831023537 84 0 0.0 0.0 0.00 0.00 0.00 64 1014.3
20260831023057 84 0 0.0 0.0 0.00 0.00 0.00 63 1014.3
20260831022537 85 0 0.0 0.0 0.00 0.00 0.00 62 1014.1
20260831022036 85 0 0.0 0.0 0.00 0.00 0.00 62 1014.1
20260831021603 86 0 0.0 0.0 0.00 0.00 0.00 62 1014.0
20260831021037 86 0 0.0 0.0 0.00 0.00 0.00 60 1013.9
20260831020538 86 0 0.0 0.0 0.00 0.00 0.00 57 1013.9
20260831020054 87 0 0.0 0.0 0.00 0.00 0.00 57 1013.8
20260831015539 88 0 0.0 0.0 0.00 0.00 0.00 57 1013.8
20260831015035 88 0 0.0 0.0 0.00 0.00 0.00 55 1013.7
20260831014553 88 0 0.0 0.0 0.00 0.00 0.00 54 1013.7
20260831014038 89 0 0.0 0.0 0.00 0.00 0.00 54 1013.6
20260831013536 89 0 0.0 0.0 0.00 0.00 0.00 54 1013.7
20260831013102 90 0 0.0 2.0 0.00 0.00 0.00 53 1013.6
20260831012536 90 0 0.0 2.0 0.00 0.00 0.00 52 1013.5
20260831012040 91 0 0.0 2.0 0.00 0.00 0.00 52 1013.4
20260831011601 91 0 0.0 2.0 0.00 0.00 0.00 51 1013.4
20260831011039 92 0 0.0 2.0 0.00 0.00 0.00 51 1013.4
20260831010539 92 174 0.0 3.0 0.00 0.00 0.00 50 1013.4
20260831010109 93 0 0.0 3.0 0.00 0.00 0.00 49 1013.5
20260831005540 93 0 1.0 5.0 0.00 0.00 0.00 49 1013.4
20260831005039 93 174 1.0 6.0 0.00 0.00 0.00 48 1013.5
20260831004603 94 167 2.0 6.0 0.00 0.00 0.00 48 1013.4
20260831004036 94 164 1.0 8.0 0.00 0.00 0.00 47 1013.5
20260831003538 94 161 3.0 9.0 0.00 0.00 0.00 47 1013.4
20260831003059 94 149 3.0 10.0 0.00 0.00 0.00 47 1013.5
20260831002538 95 146 5.0 10.0 0.00 0.00 0.00 46 1013.4
20260831002039 95 130 6.0 10.0 0.00 0.00 0.00 47 1013.5
20260831001628 95 141 3.0 8.0 0.00 0.00 0.00 47 1013.5
20260831001039 95 167 3.0 8.0 0.00 0.00 0.00 48 1013.4
20260831000539 95 165 3.0 10.0 0.00 0.00 0.00 48 1013.4
20260831000101 95 141 3.0 10.0 0.00 0.00 0.00 48 1013.4
20260830235539 95 146 4.0 9.0 0.00 0.00 0.00 47 1013.5
20260830235041 95 130 4.0 10.0 0.00 0.00 0.00 47 1013.5
20260830234603 95 113 5.0 10.0 0.00 0.00 0.00 47 1013.6
20260830234036 96 162 4.0 11.0 0.00 0.00 0.00 47 1013.5
20260830233537 96 137 5.0 12.0 0.00 0.00 0.00 47 1013.5
20260830233128 96 134 7.0 12.0 0.00 0.00 0.00 46 1013.5
20260830232540 96 132 6.0 12.0 0.00 0.00 0.00 45 1013.4
20260830232039 97 101 4.0 10.0 0.00 0.00 0.00 44 1013.5
20260830231607 98 176 5.0 10.0 0.00 0.00 0.00 43 1013.5
20260830231040 98 165 5.0 11.0 0.00 0.00 0.00 42 1013.5
20260830230539 98 136 4.0 11.0 0.00 0.00 0.00 42 1013.5
20260830230109 98 260 3.0 11.0 0.00 0.00 0.00 42 1013.5
20260830225540 98 124 3.0 9.0 0.00 0.00 0.00 43 1013.6
20260830225038 97 241 1.0 6.0 0.00 0.00 0.00 43 1013.6
20260830224604 97 175 2.0 8.0 0.00 0.00 0.00 44 1013.7
20260830224038 97 247 1.0 8.0 0.00 0.00 0.00 44 1013.6
20260830223537 97 184 3.0 8.0 0.00 0.00 0.00 44 1013.6
20260830223058 97 186 1.0 9.0 0.00 0.00 0.00 43 1013.6
20260830222538 97 0 3.0 9.0 0.00 0.00 0.00 43 1013.6
20260830222037 97 176 5.0 11.0 0.00 0.00 0.00 42 1013.6
20260830221602 98 160 5.0 11.0 0.00 0.00 0.00 41 1013.6
20260830221038 100 123 3.0 9.0 0.00 0.00 0.00 40 1013.7
20260830220537 100 215 3.0 8.0 0.00 0.00 0.00 40 1013.5
20260830220057 100 240 2.0 8.0 0.00 0.00 0.00 40 1013.5
20260830215539 100 0 0.0 7.0 0.00 0.00 0.00 41 1013.5
20260830215040 100 129 3.0 7.0 0.00 0.00 0.00 40 1013.6
20260830214601 100 225 2.0 11.0 0.00 0.00 0.00 40 1013.6
20260830214037 99 256 3.0 16.0 0.00 0.00 0.00 41 1013.8
20260830213537 99 188 6.0 16.0 0.00 0.00 0.00 40 1013.8
20260830213056 100 150 5.0 16.0 0.00 0.00 0.00 40 1013.8
20260830212537 99 179 3.0 7.0 0.00 0.00 0.00 42 1013.8
20260830212037 99 232 3.0 8.0 0.00 0.00 0.00 43 1013.9
20260830211604 99 193 3.0 8.0 0.00 0.00 0.00 43 1013.9
20260830211038 99 156 3.0 11.0 0.00 0.00 0.00 42 1014.0
20260830210539 99 175 5.0 11.0 0.00 0.00 0.00 43 1014.1
20260830210107 100 190 4.0 9.0 0.00 0.00 0.00 43 1014.2
20260830205538 100 226 3.0 9.0 0.00 0.00 0.00 42 1014.2
20260830205037 100 0 3.0 10.0 0.00 0.00 0.00 44 1014.3
20260830204559 100 231 2.0 10.0 0.00 0.00 0.00 43 1014.4
20260830204037 100 163 4.0 10.0 0.00 0.00 0.00 43 1014.5
20260830203537 100 223 3.0 10.0 0.00 0.00 0.00 44 1014.5
20260830203058 99 174 3.0 10.0 0.00 0.00 0.00 43 1014.7
20260830202537 99 186 2.0 11.0 0.00 0.00 0.00 43 1014.7
20260830202036 99 215 4.0 11.0 0.00 0.00 0.00 45 1014.8
20260830201556 98 204 2.0 10.0 0.00 0.00 0.00 45 1014.9
20260830201036 98 173 5.0 10.0 0.00 0.00 0.00 45 1015.0
20260830200539 99 165 3.0 10.0 0.00 0.00 0.00 45 1015.1
20260830200055 99 217 3.0 11.0 0.00 0.00 0.00 46 1015.2
20260830195537 98 130 3.0 11.0 0.00 0.00 0.00 46 1015.3
20260830195037 98 173 3.0 11.0 0.00 0.00 0.00 46 1015.3
20260830194607 98 198 4.0 11.0 0.00 0.00 0.00 46 1015.4
20260830194040 97 227 1.0 11.0 0.00 0.00 0.00 48 1015.4
20260830193536 97 157 3.0 11.0 0.00 0.00 0.00 48 1015.5
20260830193054 96 160 4.0 7.0 0.00 0.00 0.00 49 1015.7
20260830192536 96 290 2.0 10.0 0.00 0.00 0.00 49 1015.7
20260830192036 96 180 2.0 10.0 0.00 0.00 0.00 50 1015.7
20260830191608 96 163 3.0 12.0 0.00 0.00 0.00 50 1015.8
20260830191036 96 163 6.0 12.0 0.00 0.00 0.00 48 1015.9
20260830190537 96 165 2.0 10.0 0.00 0.00 0.00 50 1016.0
20260830190105 96 240 5.0 10.0 0.00 0.00 0.00 50 1016.1
20260830185537 96 143 3.0 9.0 0.00 0.00 0.00 52 1016.0
20260830185037 95 303 2.0 5.0 0.00 0.00 0.00 51 1016.1
20260830184559 96 315 2.0 10.0 0.00 0.00 0.00 51 1016.3
20260830184037 96 257 4.0 11.0 0.00 0.00 0.00 51 1016.5
20260830183534 96 232 3.0 11.0 0.00 0.00 0.00 50 1016.6
20260830183056 95 185 2.0 9.0 0.00 0.00 0.00 51 1016.7
20260830182537 95 110 4.0 9.0 0.00 0.00 0.00 52 1016.7
20260830182037 95 157 4.0 8.0 0.00 0.00 0.00 52 1016.9
20260830181552 94 213 2.0 10.0 0.00 0.00 0.00 55 1017.0
20260830181038 93 0 1.0 10.0 0.00 0.00 0.00 55 1017.1
20260830180537 94 294 4.0 10.0 0.00 0.00 0.00 55 1017.1
20260830175537 93 136 6.0 12.0 0.00 0.00 0.00 54 1017.3
20260830175037 93 126 6.0 10.0 0.00 0.00 0.00 54 1017.5
20260830174605 93 154 2.0 8.0 0.00 0.00 0.00 58 1017.5
20260830174037 93 85 4.0 8.0 0.00 0.00 0.00 57 1017.6
20260830173537 93 121 3.0 8.0 0.00 0.00 0.00 57 1017.6
20260830173053 93 134 2.0 8.0 0.00 0.00 0.00 58 1017.7
20260830172537 92 210 2.0 12.0 0.00 0.00 0.00 60 1017.7
20260830172037 92 116 5.0 12.0 0.00 0.00 0.00 58 1017.8
20260830171558 92 250 4.0 11.0 0.00 0.00 0.00 59 1017.8
20260830171037 91 240 4.0 11.0 0.00 0.00 0.00 60 1017.8
20260830170537 92 259 5.0 11.0 0.00 0.00 0.00 61 1017.9
20260830170057 92 213 5.0 11.0 0.00 0.00 0.00 60 1017.9
20260830165537 92 258 4.0 12.0 0.00 0.00 0.00 61 1017.8
20260830165037 92 193 5.0 12.0 0.00 0.00 0.00 61 1017.9
20260830164600 92 230 1.0 11.0 0.00 0.00 0.00 61 1018.0
20260830164037 92 177 4.0 11.0 0.00 0.00 0.00 61 1018.0
20260830163537 91 169 4.0 12.0 0.00 0.00 0.00 61 1018.0
20260830163106 91 162 3.0 13.0 0.00 0.00 0.00 61 1018.1
20260830162537 91 171 3.0 13.0 0.00 0.00 0.00 62 1018.1
20260830162035 90 156 3.0 10.0 0.00 0.00 0.00 65 1018.2
20260830161557 90 192 3.0 10.0 0.00 0.00 0.00 65 1018.3
20260830161041 89 155 2.0 8.0 0.00 0.00 0.00 65 1018.2
20260830160544 89 225 2.0 8.0 0.00 0.00 0.00 66 1018.3
20260830160115 89 265 2.0 8.0 0.00 0.00 0.00 69 1018.3
20260830155537 88 175 1.0 9.0 0.00 0.00 0.00 70 1018.1
20260830155039 88 250 4.0 9.0 0.00 0.00 0.00 71 1018.2
20260830154603 88 222 3.0 8.0 0.00 0.00 0.00 72 1018.2
20260830154041 87 182 4.0 8.0 0.00 0.00 0.00 73 1018.1
20260830153538 86 197 4.0 13.0 0.00 0.00 0.00 73 1018.2
20260830153102 86 266 3.0 13.0 0.00 0.00 0.00 74 1018.2
20260830152539 86 236 5.0 13.0 0.00 0.00 0.00 74 1018.1
20260830152039 86 286 4.0 13.0 0.00 0.00 0.00 74 1018.0
20260830151555 87 250 1.0 13.0 0.00 0.00 0.00 76 1018.0
20260830151040 87 227 2.0 7.0 0.00 0.00 0.00 77 1018.1
20260830150539 86 200 2.0 7.0 0.00 0.00 0.00 79 1018.0
20260830150116 85 242 2.0 7.0 0.00 0.00 0.00 79 1018.0
20260830145540 85 194 3.0 7.0 0.00 0.00 0.00 79 1018.1
20260830145038 84 250 1.0 7.0 0.00 0.00 0.00 81 1018.1
20260830144606 84 209 2.0 9.0 0.00 0.00 0.00 82 1018.1
20260830144039 83 205 3.0 9.0 0.00 0.00 0.00 82 1018.2
20260830143537 83 173 4.0 8.0 0.00 0.00 0.00 84 1018.1
20260830143057 83 284 3.0 7.0 0.00 0.00 0.00 84 1018.1
20260830142536 82 225 2.0 5.0 0.00 0.00 0.00 85 1018.0
20260830142040 82 186 0.0 4.0 0.00 0.00 0.00 87 1017.9
20260830141554 81 252 2.0 5.0 0.00 0.00 0.00 87 1018.0
20260830141037 81 227 1.0 5.0 0.00 0.00 0.00 88 1018.0
20260830140539 81 173 1.0 3.0 0.00 0.00 0.00 89 1018.0
20260830135539 80 256 2.0 8.0 0.00 0.00 0.00 89 1018.1
20260830135039 79 170 1.0 5.0 0.00 0.00 0.00 91 1018.1
20260830134606 79 170 2.0 5.0 0.00 0.00 0.00 91 1018.1
20260830134040 78 170 1.0 5.0 0.00 0.00 0.00 91 1018.0
20260830133538 78 170 1.0 5.0 0.00 0.00 0.00 92 1017.9
20260830133058 78 170 3.0 5.0 0.00 0.00 0.00 92 1018.0
20260830132536 77 167 2.0 5.0 0.00 0.00 0.00 93 1018.0
20260830132036 77 0 0.0 0.0 0.00 0.00 0.00 93 1018.0
20260830131556 77 0 0.0 0.0 0.00 0.00 0.00 93 1017.9
20260830131127 77 0 0.0 0.0 0.00 0.00 0.00 94 1018.0
20260830130540 76 0 0.0 0.0 0.00 0.00 0.00 94 1017.9
20260830130109 76 0 0.0 0.0 0.00 0.00 0.00 94 1017.7
20260830125542 76 0 0.0 3.0 0.00 0.00 0.00 94 1017.7
20260830125039 75 0 1.0 3.0 0.00 0.00 0.00 94 1017.6
20260830124559 75 189 1.0 2.0 0.00 0.00 0.00 94 1017.5
20260830124039 75 189 0.0 2.0 0.00 0.00 0.00 94 1017.4
20260830123539 74 0 0.0 0.0 0.00 0.00 0.00 94 1017.4
20260830123057 74 0 0.0 0.0 0.00 0.00 0.00 93 1017.4
20260830122538 74 0 0.0 1.0 0.00 0.00 0.00 93 1017.3
20260830122038 74 0 0.0 1.0 0.00 0.00 0.00 93 1017.3
20260830121606 74 0 0.0 0.0 0.00 0.00 0.00 93 1017.3
20260830121038 74 0 0.0 0.0 0.00 0.00 0.00 93 1017.3
20260830120539 74 0 0.0 3.0 0.00 0.00 0.00 93 1017.1
20260830120106 74 0 0.0 3.0 0.00 0.00 0.00 93 1017.1
20260830115537 74 0 1.0 3.0 0.00 0.00 0.00 93 1017.2
20260830115037 74 194 0.0 2.0 0.00 0.00 0.00 93 1017.1
20260830114614 74 194 0.0 2.0 0.00 0.00 0.00 92 1017.2
20260830114036 74 0 0.0 1.0 0.00 0.00 0.00 92 1017.1
20260830113537 74 0 0.0 1.0 0.00 0.00 0.00 92 1017.0
20260830113056 74 0 0.0 0.0 0.00 0.00 0.00 91 1017.0
20260830112536 74 0 0.0 0.0 0.00 0.00 0.00 91 1017.0
20260830112039 74 0 0.0 1.0 0.00 0.00 0.00 91 1017.1
20260830111603 74 0 0.0 1.0 0.00 0.00 0.00 91 1017.1
20260830111038 75 0 0.0 0.0 0.00 0.00 0.00 91 1017.0
20260830110538 74 0 0.0 0.0 0.00 0.00 0.00 90 1017.0
20260830105537 75 0 0.0 0.0 0.00 0.00 0.00 90 1016.9
20260830105036 75 0 0.0 0.0 0.00 0.00 0.00 90 1016.9
20260830104557 75 0 0.0 0.0 0.00 0.00 0.00 89 1016.9
20260830104039 75 0 0.0 0.0 0.00 0.00 0.00 89 1017.0
20260830103539 75 0 0.0 0.0 0.00 0.00 0.00 89 1016.9
20260830103103 75 0 0.0 0.0 0.00 0.00 0.00 89 1016.8
20260830102539 75 0 0.0 0.0 0.00 0.00 0.00 89 1016.9
20260830102037 75 0 0.0 0.0 0.00 0.00 0.00 89 1017.0
20260830101601 75 0 0.0 0.0 0.00 0.00 0.00 89 1016.9
20260830101037 75 0 0.0 0.0 0.00 0.00 0.00 88 1016.9
20260830100537 75 0 0.0 0.0 0.00 0.00 0.00 89 1016.8
20260830095537 75 0 0.0 1.0 0.00 0.00 0.00 88 1016.8
20260830095037 76 0 0.0 1.0 0.00 0.00 0.00 88 1016.6
20260830094556 76 0 0.0 1.0 0.00 0.00 0.00 88 1016.7
20260830094038 76 0 0.0 0.0 0.00 0.00 0.00 88 1016.7
20260830093537 76 0 0.0 0.0 0.00 0.00 0.00 87 1016.7
20260830093101 76 0 0.0 0.0 0.00 0.00 0.00 87 1016.7
20260830092537 77 0 0.0 0.0 0.00 0.00 0.00 87 1016.7
20260830092037 77 0 0.0 0.0 0.00 0.00 0.00 87 1016.6
20260830091605 77 0 0.0 0.0 0.00 0.00 0.00 86 1016.6
20260830091038 77 0 0.0 0.0 0.00 0.00 0.00 86 1016.5
20260830090537 77 0 0.0 0.0 0.00 0.00 0.00 86 1016.5
20260830090108 77 0 0.0 0.0 0.00 0.00 0.00 87 1016.5
20260830085534 78 0 0.0 0.0 0.00 0.00 0.00 86 1016.5
20260830085035 78 0 0.0 0.0 0.00 0.00 0.00 86 1016.4
20260830084604 78 0 0.0 0.0 0.00 0.00 0.00 86 1016.3
20260830084036 78 0 0.0 0.0 0.00 0.00 0.00 86 1016.3
20260830083536 78 0 0.0 0.0 0.00 0.00 0.00 86 1016.3
20260830083101 78 0 0.0 1.0 0.00 0.00 0.00 85 1016.2
20260830082536 78 0 0.0 1.0 0.00 0.00 0.00 86 1016.2
20260830082037 79 0 0.0 1.0 0.00 0.00 0.00 86 1016.3
20260830081555 79 0 0.0 3.0 0.00 0.00 0.00 85 1016.3
20260830081037 79 0 0.0 3.0 0.00 0.00 0.00 85 1016.4
20260830080536 79 0 0.0 3.0 0.00 0.00 0.00 85 1016.4
20260830080055 79 0 0.0 3.0 0.00 0.00 0.00 85 1016.4
20260830075536 79 0 0.0 3.0 0.00 0.00 0.00 84 1016.4
20260830075036 79 0 0.0 3.0 0.00 0.00 0.00 85 1016.4
20260830074605 79 157 0.0 3.0 0.00 0.00 0.00 85 1016.5
20260830074036 80 0 0.0 2.0 0.00 0.00 0.00 84 1016.5
20260830073536 80 157 0.0 2.0 0.00 0.00 0.00 84 1016.5
20260830073103 80 0 0.0 2.0 0.00 0.00 0.00 84 1016.5
20260830072536 80 157 0.0 2.0 0.00 0.00 0.00 84 1016.5
20260830072036 80 0 0.0 2.0 0.00 0.00 0.00 83 1016.5
20260830071556 80 0 0.0 2.0 0.00 0.00 0.00 83 1016.5
20260830071037 80 0 0.0 4.0 0.00 0.00 0.00 83 1016.5
20260830070535 80 0 0.0 4.0 0.00 0.00 0.00 82 1016.5
20260830070113 80 0 0.0 4.0 0.00 0.00 0.00 82 1016.5
20260830065536 81 186 0.0 3.0 0.00 0.00 0.00 82 1016.4
20260830065036 81 0 0.0 6.0 0.00 0.00 0.00 82 1016.4
20260830064555 81 0 0.0 6.0 0.00 0.00 0.00 82 1016.4
20260830064035 81 130 0.0 4.0 0.00 0.00 0.00 82 1016.2
20260830063535 81 0 0.0 4.0 0.00 0.00 0.00 81 1016.3
20260830063109 81 182 1.0 5.0 0.00 0.00 0.00 81 1016.4
20260830062537 81 150 0.0 7.0 0.00 0.00 0.00 81 1016.4
20260830062036 82 153 1.0 7.0 0.00 0.00 0.00 81 1016.4
20260830061603 82 159 1.0 5.0 0.00 0.00 0.00 80 1016.3
20260830061035 82 166 1.0 5.0 0.00 0.00 0.00 80 1016.4
20260830060535 82 149 1.0 5.0 0.00 0.00 0.00 80 1016.3
20260830060107 82 230 1.0 5.0 0.00 0.00 0.00 80 1016.3
20260830055535 82 199 0.0 8.0 0.00 0.00 0.00 79 1016.2
20260830055035 82 0 2.0 8.0 0.00 0.00 0.00 79 1016.2
20260830054602 82 178 1.0 5.0 0.00 0.00 0.00 79 1016.2
20260830054036 82 188 2.0 7.0 0.00 0.00 0.00 79 1016.2
20260830053537 82 221 1.0 7.0 0.00 0.00 0.00 78 1016.2
20260830053053 82 161 2.0 9.0 0.00 0.00 0.00 78 1016.2
20260830052536 83 194 2.0 9.0 0.00 0.00 0.00 77 1016.2
20260830052036 83 179 1.0 6.0 0.00 0.00 0.00 77 1016.3
20260830051612 83 171 2.0 5.0 0.00 0.00 0.00 77 1016.2
20260830051035 83 200 2.0 6.0 0.00 0.00 0.00 76 1016.2
20260830050537 83 0 2.0 6.0 0.00 0.00 0.00 76 1016.2
20260830050100 83 173 1.0 6.0 0.00 0.00 0.00 75 1016.2
20260830045535 83 201 2.0 7.0 0.00 0.00 0.00 75 1016.2
20260830045036 83 202 2.0 7.0 0.00 0.00 0.00 75 1016.2
20260830044603 83 192 1.0 7.0 0.00 0.00 0.00 74 1016.2
20260830044035 83 197 2.0 6.0 0.00 0.00 0.00 73 1016.3
20260830043537 83 186 1.0 6.0 0.00 0.00 0.00 73 1016.3
20260830043053 83 167 2.0 6.0 0.00 0.00 0.00 72 1016.2
20260830042535 83 211 2.0 6.0 0.00 0.00 0.00 71 1016.2
20260830042037 83 170 2.0 6.0 0.00 0.00 0.00 71 1016.1
20260830041656 83 182 2.0 6.0 0.00 0.00 0.00 70 1016.1
20260830041035 82 201 1.0 4.0 0.00 0.00 0.00 70 1016.0
20260830040538 82 197 2.0 5.0 0.00 0.00 0.00 70 1016.0
20260830040056 81 171 2.0 5.0 0.00 0.00 0.00 71 1016.1
20260830035535 80 155 1.0 3.0 0.00 0.00 0.00 73 1016.1
20260830035035 80 0 0.0 1.0 0.00 0.00 0.00 73 1016.0
20260830034617 80 0 0.0 1.0 0.00 0.00 0.00 73 1015.8
20260830034037 80 0 0.0 1.0 0.00 0.00 0.00 72 1015.9
20260830033536 80 0 0.0 1.0 0.00 0.00 0.00 71 1015.8
20260830033053 80 0 0.0 0.0 0.00 0.00 0.00 71 1015.8